Terminal Aerodrome Forecast
Issued by NWS Huntsville, AL

Home | Current Version | Previous Version | Text Only | Print | Product List | Glossary On
Versions: 1 2 3 4 5 6 7 8 9 10 11 12 13 14 15 16 17 18 19 20 21 22 23 24 25 26 27 28 29 30
000
FTUS44 KHUN 021736
TAFMSL
TAF
KMSL 021736Z 0218/0318 25010KT P6SM VCSH SCT030 BKN050
     FM022000 22007KT P6SM VCTS SCT030CB
     FM030200 VRB02KT P6SM SCT040 BKN250
     FM031500 VRB04KT P6SM FEW050 SCT250=

USA.gov is the U.S. government's official web portal to all federal, state and local government web resources and services.